This is the latest recevied weather packets stored in our database for station/object HB9GPU-10. If no packets are shown the sender has not sent any weather packets the latest 10 day(s).
| Time | Temp. | Humidity | Pressure | Rain* | Wind** | Luminosity | Snow |
|---|---|---|---|---|---|---|---|
| 1778047832 | 25.56° C | 21% | 1011.4 hPa | - | - | - | - |
| 1778046936 | 25.56° C | 22% | 1011.5 hPa | - | - | - | - |
| 1778046932 | 25.56° C | 22% | 1011.5 hPa | - | - | - | - |
| 1778046035 | 25.56° C | 22% | 1011.4 hPa | - | - | - | - |
| 1778046031 | 25.56° C | 22% | 1011.4 hPa | - | - | - | - |
| 1778045135 | 26.67° C | 20% | 1011.4 hPa | - | - | - | - |
| 1778045131 | 26.67° C | 20% | 1011.4 hPa | - | - | - | - |
| 1778044235 | 25.56° C | 22% | 1011.4 hPa | - | - | - | - |
| 1778044231 | 25.56° C | 22% | 1011.4 hPa | - | - | - | - |
| 1778043335 | 25.56° C | 22% | 1011.5 hPa | - | - | - | - |
| 1778043331 | 25.56° C | 22% | 1011.5 hPa | - | - | - | - |
| 1778042435 | 25.56° C | 21% | 1011.6 hPa | - | - | - | - |
| 1778042431 | 25.56° C | 21% | 1011.6 hPa | - | - | - | - |
| 1778041535 | 26.67° C | 20% | 1011.7 hPa | - | - | - | - |
| 1778041530 | 26.67° C | 20% | 1011.7 hPa | - | - | - | - |
| 1778040634 | 26.67° C | 20% | 1011.7 hPa | - | - | - | - |
| 1778040630 | 26.67° C | 20% | 1011.7 hPa | - | - | - | - |
| 1778039734 | 28.33° C | 18% | 1011.8 hPa | - | - | - | - |
| 1778039730 | 28.33° C | 18% | 1011.8 hPa | - | - | - | - |
| 1778038834 | 28.33° C | 17% | 1012.2 hPa | - | - | - | - |
| 1778038830 | 28.33° C | 17% | 1012.2 hPa | - | - | - | - |
| 1778037934 | 27.22° C | 19% | 1012.5 hPa | - | - | - | - |
| 1778037930 | 27.22° C | 19% | 1012.5 hPa | - | - | - | - |
| 1778037034 | 28.33° C | 18% | 1012.5 hPa | - | - | - | - |
| 1778037030 | 28.33° C | 18% | 1012.5 hPa | - | - | - | - |
* Rain since midnight (hover to see other rain measurements)
** Current wind speed in m/s (hover to see current wind gust speed)